TimeCST,TemperatureF,Dew PointF,Humidity,Sea Level PressureIn,VisibilityMPH,Wind Direction,Wind SpeedMPH,Gust SpeedMPH,PrecipitationIn,Events,Conditions,WindDirDegrees,DateUTC
12:51 AM,46.9,28.9,50,29.92,10.0,WSW,3.5,-,N/A,,Clear,250,2013-02-05 06:51:00
1:51 AM,43.0,28.9,58,29.94,10.0,WSW,4.6,-,N/A,,Clear,240,2013-02-05 07:51:00
2:51 AM,45.0,30.9,58,29.92,10.0,West,4.6,-,N/A,,Clear,270,2013-02-05 08:51:00
3:51 AM,39.9,30.0,68,29.94,10.0,WSW,6.9,-,N/A,,Clear,240,2013-02-05 09:51:00
4:51 AM,37.9,28.9,70,29.94,10.0,SW,4.6,-,N/A,,Clear,230,2013-02-05 10:51:00
5:51 AM,36.0,28.9,76,29.95,10.0,SW,5.8,-,N/A,,Clear,220,2013-02-05 11:51:00
6:51 AM,35.1,28.9,78,29.96,10.0,West,4.6,-,N/A,,Clear,270,2013-02-05 12:51:00
7:51 AM,37.0,28.9,73,30.00,10.0,West,5.8,-,N/A,,Clear,260,2013-02-05 13:51:00
8:51 AM,43.0,32.0,65,30.01,10.0,West,4.6,-,N/A,,Clear,260,2013-02-05 14:51:00
9:51 AM,50.0,34.0,54,30.03,10.0,WSW,4.6,-,N/A,,Clear,240,2013-02-05 15:51:00
10:51 AM,59.0,37.9,46,30.01,10.0,Calm,Calm,-,N/A,,Clear,0,2013-02-05 16:51:00
11:51 AM,66.0,41.0,40,30.00,10.0,Variable,3.5,-,N/A,,Clear,0,2013-02-05 17:51:00
12:51 PM,70.0,37.9,31,29.97,10.0,Calm,Calm,-,N/A,,Clear,0,2013-02-05 18:51:00
1:51 PM,73.0,36.0,26,29.93,10.0,Calm,Calm,-,N/A,,Clear,0,2013-02-05 19:51:00
2:51 PM,75.9,32.0,20,29.89,10.0,Calm,Calm,-,N/A,,Clear,0,2013-02-05 20:51:00
3:51 PM,75.9,32.0,20,29.88,10.0,Calm,Calm,-,N/A,,Clear,0,2013-02-05 21:51:00
4:51 PM,75.0,32.0,21,29.88,10.0,NE,5.8,-,N/A,,Clear,50,2013-02-05 22:51:00
5:51 PM,70.0,34.0,27,29.90,10.0,East,9.2,-,N/A,,Clear,80,2013-02-05 23:51:00
6:51 PM,64.0,34.0,33,29.91,10.0,East,6.9,-,N/A,,Clear,80,2013-02-06 00:51:00
7:51 PM,61.0,32.0,34,29.94,10.0,East,5.8,-,N/A,,Clear,100,2013-02-06 01:51:00
8:51 PM,61.0,30.9,32,29.94,10.0,ESE,6.9,-,N/A,,Clear,120,2013-02-06 02:51:00
9:51 PM,62.1,32.0,32,29.94,10.0,ESE,8.1,-,N/A,,Clear,120,2013-02-06 03:51:00
10:51 PM,60.1,34.0,38,29.94,10.0,ESE,6.9,-,N/A,,Clear,110,2013-02-06 04:51:00
11:51 PM,54.0,34.0,47,29.94,10.0,ENE,5.8,-,N/A,,Clear,70,2013-02-06 05:51:00